Regional Weather Roundup
Issued by NWS

Home | Current Version | Previous Version | Text Only | Print | Product List | Glossary Off
Versions: 1 2 3 4 5 6 7 8 9 10 11 12 13 14 15 16 17 18 19 20 21 22 23 24 25 26 27 28 29 30 31 32 33 34 35 36 37 38 39 40 41 42 43 44 45 46 47 48 49 50

000
ASUS43 KOAX 041510
RWRNE

WEATHER ROUNDUP FOR NEBRASKA
NATIONAL WEATHER SERVICE OMAHA NE
900 AM CST WED MAR 04 2015

NOTES: SATELLITE DATA IS BEING USED TO AUGMENT CLOUD COVER ABOVE
       12000 FEET.
       "FAIR" INDICATES FEW OR NO CLOUDS BELOW 12,000 FEET WITH NO
       SIGNIFICANT WEATHER AND/OR OBSTRUCTIONS TO VISIBILITY.

  * THESE STATIONS DO NOT REPORT WEATHER SUCH AS RAIN...SNOW OR FOG.

NEZ001>004-019>022-054>056-041600-
NEBRASKA PANHANDLE

CITY           SKY/WX    TMP DP  RH WIND       PRES   REMARKS
SCOTTSBLUFF    MOSUNNY   11   4  73 W7        30.18R WCI   0
ALLIANCE       SUNNY     10   1  67 W12       30.16R WCI  -5
CHADRON        SUNNY      5  -4  66 W12       30.21R WCI -11
KIMBALL        CLOUDY    13   6  73 W6        30.11R WCI   4
SIDNEY         CLOUDY    11   3  70 W9        30.16R WCI  -2
$$

NEZ057>060-069>072-079>082-041600-
SOUTHWEST NEBRASKA

CITY           SKY/WX    TMP DP  RH WIND       PRES   REMARKS
NORTH PLATTE   SUNNY     15  10  80 W9        30.24R WCI   3
IMPERIAL         N/A     13   4  67 NW6       30.23R WCI   4
LEXINGTON      MOSUNNY   12   8  83 NW9       30.26R WCI  -1
MCCOOK         PTSUNNY   19  12  74 NW6       30.27R WCI  11
OGALLALA       CLOUDY    11   5  76 W6        30.22R WCI   2
$$

NEZ005>010-023>029-035>040-094-041600-
NORTH CENTRAL NEBRASKA

CITY           SKY/WX    TMP DP  RH WIND       PRES   REMARKS
VALENTINE      SUNNY     10   1  67 NW7       30.24R WCI  -1
AINSWORTH      SUNNY     13   1  59 NW14      30.23R WCI  -2
BROKEN BOW     MOSUNNY   17   8  67 W9        30.23R WCI   6
O`NEILL        SUNNY     16   3  56 NW21G28   30.26R WCI  -2
ORD            SUNNY     20   6  55 W9        30.25R WCI   9
THEDFORD       SUNNY     15   6  67 NW13      30.22R WCI   1
$$

NEZ041-046>049-061>064-073>077-083>087-041600-
SOUTH CENTRAL NEBRASKA

CITY           SKY/WX    TMP DP  RH WIND       PRES   REMARKS
GRAND ISLAND   MOSUNNY   18   9  68 NW9       30.28R WCI   7
AURORA         MOSUNNY   18   9  68 NW9       30.28R WCI   7
HASTINGS       SUNNY     16   9  74 NW10      30.27R WCI   4
HEBRON         MOSUNNY   16  11  82 NW6       30.31R WCI   8
HOLDREGE       MOSUNNY   15  10  80 NW6       30.27R WCI   6
KEARNEY *      FAIR      16  10  79 NW6       30.27R WCI   7
YORK           MOSUNNY   16   9  73 NW7       30.28R WCI   6
$$

NEZ011>018-030>034-042>045-041600-
NORTHEAST NEBRASKA

CITY           SKY/WX    TMP DP  RH WIND       PRES   REMARKS
NORFOLK        SUNNY     18   3  52 W17       30.24R WCI   3
ALBION         SUNNY     21   0  40 NW14G20   30.25S WCI   8
BLAIR          SUNNY     19   8  60 SW6       30.28R WCI  11
COLUMBUS *     SUNNY     19   3  49 W7        30.29R WCI  10
FREMONT        FAIR      22  10  58 W8        30.29R WCI  13
TEKAMAH        SUNNY     20   7  57 W7        30.29R WCI  11
WAYNE          SUNNY     17   4  56 W15       30.25R WCI   3
$$

NEZ050>053-065>068-078-088>093-041600-
SOUTHEAST NEBRASKA

CITY           SKY/WX    TMP DP  RH WIND       PRES   REMARKS
LINCOLN        SUNNY     21  10  62 N3        30.32R
OMAHA EPPLEY   MOSUNNY   21   7  54 NW5       30.31R WCI  15
BEATRICE       MOSUNNY   17  15  93 NW7       30.30S WCI   8
FALLS CITY     SUNNY     20  13  74 N7        30.31R WCI  11
NEBRASKA CITY  MOSUNNY   19  12  74 NW6       30.30S WCI  11
PLATTSMOUTH    SUNNY     15  11  82 CALM      30.31R
$$

NEZ044-045-051>053-067-041600-
OMAHA AREA

CITY           SKY/WX    TMP DP  RH WIND       PRES   REMARKS
OMAHA EPPLEY   MOSUNNY   21   7  54 NW5       30.31R WCI  15
BLAIR          SUNNY     19   8  60 SW6       30.28R WCI  11
FREMONT        FAIR      22  10  58 W8        30.29R WCI  13
MILLARD        SUNNY     20   7  56 W3        30.30R
OFFUTT AFB     MOSUNNY   20   8  62 VRB5      30.30R WCI  13
PLATTSMOUTH    SUNNY     15  11  82 CALM      30.31R
WAHOO          FAIR      20  11  69 W3        30.30R
$$


USA.gov is the U.S. government's official web portal to all federal, state and local government web resources and services.